Flag for Australia Weather past 2 weeks in Uluru, Northern Territory, Australia

Now
37 °F

Clear.


Feels Like: 32 °F
Forecast: 40 / 65 °F
Wind: 7 mph from South

Location: Ayers Rock

Current Time: Jul 24, 2014 at 5:50:35 AM

Latest Report: Jul 24, 2014 at 4:30 AM


Visibility: N/A

Pressure: 30.04 "Hg

Humidity: 81%

Dew point: 32 °F

Location of UluruLocation

Historic Weather in Uluru — Graph

°F

Uluru temperature yesterday

Maximum temperature yesterday: 72 °F (at 2:30 PM)
Minimum temperature yesterday: 46 °F (at 11:30 PM)
Average temperature yesterday: 62 °F

Past Weeks' High & Low Weather Summary

 TemperatureHumidityPressure
High81 °F (Jul 22, 1:30 PM)100% (Jul 14, 12:30 AM)30.36 "Hg (Jul 14, 12:30 AM)
Low28 °F (Jul 10, 7:30 AM)17% (Jul 12, 3:30 PM)29.95 "Hg (Jul 22, 3:30 PM)
Average53 °F54%30.15 "Hg
* Reported Jul 9 3:30 AM — Jul 24 3:30 AM, Uluru, Weather by CustomWeather, © 2014

Note: Actual official high and low records may vary slightly from our data, if they occured in-between our weather recording intervals... More about our weather records

Advertising

Uluru weather history for previous 24 hours

 ConditionsComfort  
Time TempWeatherWind HumidityBarometerVisibility
3:30 AM
Jul 24
39 °FClear.7 mph75%30.04 "HgN/A
2:30 AM39 °FClear.6 mph75%30.04 "HgN/A
1:30 AM39 °FClear.No wind75%30.04 "HgN/A
12:30 AM43 °FClear.6 mph71%30.04 "HgN/A
11:30 PM
Jul 23
46 °FClear.8 mph62%30.04 "HgN/A
9:30 PM54 °FClear.7 mph41%30.04 "HgN/A
8:30 PM55 °FClear.8 mph44%30.01 "HgN/A
7:30 PM57 °FClear.5 mph41%30.01 "HgN/A
6:30 PM63 °FClear.7 mph34%29.98 "HgN/A
5:30 PM68 °FSunny.12 mph30%29.98 "HgN/A
3:34 PM70 °FSunny.17 mph33%29.95 "HgN/A
2:30 PM72 °FSunny.15 mph38%29.95 "HgN/A
1:30 PM70 °FSunny.13 mph43%29.98 "HgN/A
12:30 PM68 °FPartly sunny.14 mph46%30.01 "HgN/A
11:30 AM66 °FBroken clouds.12 mph56%30.04 "HgN/A
10:30 AM64 °FPartly sunny.9 mph60%30.07 "HgN/A
9:30 AM63 °FScattered clouds.7 mph77%30.04 "HgN/A
Weather by CustomWeather, © 2014

See weather overviewHow to use our weather pages